TimeEDT,TemperatureF,Dew PointF,Humidity,Sea Level PressureIn,VisibilityMPH,Wind Direction,Wind SpeedMPH,Gust SpeedMPH,PrecipitationIn,Events,Conditions,WindDirDegrees,DateUTC
12:13 AM,39.2,26.6,61,30.44,10.0,NNE,3.5,-,N/A,,Clear,30,2012-10-13 04:13:00
12:34 AM,39.2,26.6,61,30.44,10.0,NE,3.5,-,N/A,,Clear,40,2012-10-13 04:34:00
12:55 AM,39.2,24.8,56,30.44,10.0,Calm,Calm,-,N/A,,Clear,0,2012-10-13 04:55:00
1:19 AM,39.2,26.6,61,30.44,10.0,Calm,Calm,-,N/A,,Clear,0,2012-10-13 05:19:00
1:40 AM,37.4,26.6,65,30.44,10.0,ENE,3.5,-,N/A,,Clear,70,2012-10-13 05:40:00
2:01 AM,39.2,24.8,56,30.44,10.0,Calm,Calm,-,N/A,,Clear,0,2012-10-13 06:01:00
2:22 AM,39.2,24.8,56,30.45,10.0,Calm,Calm,-,N/A,,Clear,0,2012-10-13 06:22:00
2:43 AM,39.2,24.8,56,30.46,10.0,Calm,Calm,-,N/A,,Clear,0,2012-10-13 06:43:00
3:04 AM,39.2,24.8,56,30.46,10.0,Calm,Calm,-,N/A,,Clear,0,2012-10-13 07:04:00
3:25 AM,37.4,24.8,60,30.46,10.0,Calm,Calm,-,N/A,,Clear,0,2012-10-13 07:25:00
4:07 AM,37.4,26.6,65,30.46,10.0,Calm,Calm,-,N/A,,Clear,0,2012-10-13 08:07:00
4:28 AM,35.6,26.6,70,30.46,10.0,Calm,Calm,-,N/A,,Clear,0,2012-10-13 08:28:00
4:52 AM,33.8,26.6,75,30.47,10.0,Calm,Calm,-,N/A,,Clear,0,2012-10-13 08:52:00
5:13 AM,33.8,26.6,75,30.49,10.0,Calm,Calm,-,N/A,,Clear,0,2012-10-13 09:13:00
5:55 AM,32.0,26.6,80,30.49,10.0,Calm,Calm,-,N/A,,Clear,0,2012-10-13 09:55:00
6:16 AM,32.0,26.6,80,30.49,10.0,Calm,Calm,-,N/A,,Clear,0,2012-10-13 10:16:00
6:37 AM,32.0,26.6,80,30.49,10.0,Calm,Calm,-,N/A,,Clear,0,2012-10-13 10:37:00
6:58 AM,32.0,26.6,80,30.50,10.0,Calm,Calm,-,N/A,,Clear,0,2012-10-13 10:58:00
7:19 AM,30.2,28.4,93,30.50,10.0,Calm,Calm,-,N/A,,Clear,0,2012-10-13 11:19:00
7:40 AM,30.2,28.4,93,30.51,10.0,Calm,Calm,-,N/A,,Clear,0,2012-10-13 11:40:00
8:01 AM,32.0,28.4,87,30.50,10.0,Calm,Calm,-,N/A,,Clear,0,2012-10-13 12:01:00
8:22 AM,33.8,28.4,81,30.51,10.0,Calm,Calm,-,N/A,,Clear,0,2012-10-13 12:22:00
8:43 AM,35.6,28.4,75,30.51,10.0,Calm,Calm,-,N/A,,Clear,0,2012-10-13 12:43:00
9:49 AM,42.8,19.4,39,30.52,10.0,SE,6.9,-,N/A,,Clear,140,2012-10-13 13:49:00
10:31 AM,44.6,17.6,34,30.51,10.0,SE,5.8,-,N/A,,Clear,140,2012-10-13 14:31:00
10:52 AM,44.6,17.6,34,30.51,10.0,SSE,3.5,-,N/A,,Clear,160,2012-10-13 14:52:00
11:13 AM,46.4,15.8,29,30.51,10.0,Calm,Calm,-,N/A,,Clear,0,2012-10-13 15:13:00
11:34 AM,46.4,17.6,32,30.51,10.0,Calm,Calm,-,N/A,,Clear,0,2012-10-13 15:34:00
11:55 AM,48.2,17.6,30,30.50,10.0,South,4.6,-,N/A,,Clear,180,2012-10-13 15:55:00
12:16 PM,50.0,19.4,30,30.48,10.0,South,5.8,-,N/A,,Clear,170,2012-10-13 16:16:00
12:58 PM,51.8,21.2,30,30.45,10.0,South,3.5,-,N/A,,Clear,180,2012-10-13 16:58:00
1:19 PM,51.8,21.2,30,30.43,10.0,SE,5.8,-,N/A,,Clear,140,2012-10-13 17:19:00
2:01 PM,53.6,23.0,30,30.40,10.0,SSE,11.5,-,N/A,,Clear,160,2012-10-13 18:01:00
2:22 PM,55.4,24.8,31,30.39,10.0,South,11.5,-,N/A,,Clear,170,2012-10-13 18:22:00
2:46 PM,55.4,24.8,31,30.38,10.0,SSW,10.4,17.3,N/A,,Clear,210,2012-10-13 18:46:00
3:07 PM,55.4,26.6,33,30.39,10.0,South,6.9,-,N/A,,Clear,190,2012-10-13 19:07:00
3:28 PM,55.4,26.6,33,30.38,10.0,South,8.1,-,N/A,,Clear,180,2012-10-13 19:28:00
3:49 PM,57.2,24.8,29,30.38,10.0,SW,6.9,-,N/A,,Clear,220,2012-10-13 19:49:00
4:31 PM,55.4,26.6,33,30.38,10.0,South,9.2,-,N/A,,Clear,170,2012-10-13 20:31:00
4:52 PM,57.2,26.6,31,30.37,10.0,South,8.1,-,N/A,,Clear,170,2012-10-13 20:52:00
5:13 PM,55.4,26.6,33,30.36,10.0,South,8.1,-,N/A,,Clear,170,2012-10-13 21:13:00
5:34 PM,55.4,26.6,33,30.36,10.0,South,6.9,-,N/A,,Clear,180,2012-10-13 21:34:00
5:55 PM,53.6,28.4,38,30.36,10.0,South,6.9,-,N/A,,Clear,180,2012-10-13 21:55:00
6:37 PM,51.8,28.4,41,30.35,10.0,South,5.8,-,N/A,,Clear,170,2012-10-13 22:37:00
6:58 PM,51.8,28.4,41,30.34,10.0,South,8.1,-,N/A,,Clear,170,2012-10-13 22:58:00
7:19 PM,51.8,28.4,41,30.33,10.0,South,8.1,-,N/A,,Clear,170,2012-10-13 23:19:00
7:43 PM,50.0,30.2,47,30.34,10.0,South,6.9,-,N/A,,Clear,170,2012-10-13 23:43:00
8:25 PM,48.2,30.2,50,30.33,10.0,SSE,6.9,-,N/A,,Clear,160,2012-10-14 00:25:00
8:46 PM,48.2,30.2,50,30.33,10.0,SSE,8.1,-,N/A,,Clear,160,2012-10-14 00:46:00
9:07 PM,48.2,30.2,50,30.34,10.0,SSE,6.9,-,N/A,,Clear,160,2012-10-14 01:07:00
9:49 PM,48.2,30.2,50,30.33,10.0,South,10.4,-,N/A,,Clear,170,2012-10-14 01:49:00
10:31 PM,48.2,30.2,50,30.31,10.0,South,11.5,-,N/A,,Clear,170,2012-10-14 02:31:00
10:52 PM,46.4,30.2,53,30.30,10.0,South,10.4,-,N/A,,Clear,170,2012-10-14 02:52:00
11:13 PM,48.2,30.2,50,30.30,10.0,South,10.4,-,N/A,,Clear,170,2012-10-14 03:13:00
11:58 PM,48.2,32.0,54,30.26,10.0,South,12.7,19.6,N/A,,Clear,170,2012-10-14 03:58:00